This is the latest recevied weather packets stored in our database for station/object CQ0XPG-11. If no packets are shown the sender has not sent any weather packets the latest 10 day(s).
| Time | Temp. | Humidity | Pressure | Rain* | Wind** | Luminosity | Snow |
|---|---|---|---|---|---|---|---|
| 1777487147 | 13.89° C | 100% | 1000.4 hPa | 2.29 mm | - | - | - |
| 1777486551 | 13.89° C | 100% | 1000.3 hPa | 2.29 mm | - | - | - |
| 1777486257 | 14.44° C | 100% | 1000.2 hPa | 2.29 mm | - | - | - |
| 1777483859 | 15.56° C | 100% | 1000 hPa | 2.29 mm | - | - | - |
| 1777483509 | 15.56° C | 100% | 999.9 hPa | 2.29 mm | - | - | - |
| 1777483233 | 15.56° C | 100% | 999.8 hPa | 2.29 mm | - | - | - |
| 1777482914 | 15.56° C | 100% | 999.7 hPa | 2.29 mm | - | - | - |
| 1777482620 | 15.56° C | 100% | 999.7 hPa | 2.29 mm | - | - | - |
| 1777482309 | 16.11° C | 100% | 999.7 hPa | 2.29 mm | - | - | - |
| 1777482009 | 16.67° C | 100% | 999.6 hPa | 2.29 mm | - | - | - |
| 1777481695 | 16.67° C | 100% | 999.5 hPa | 2.29 mm | - | - | - |
| 1777481087 | 17.22° C | 100% | 999.4 hPa | 2.29 mm | - | - | - |
| 1777480797 | 16.67° C | 100% | 999.2 hPa | 2.29 mm | - | - | - |
| 1777480488 | 16.67° C | 100% | 999.2 hPa | 2.29 mm | - | - | - |
| 1777480195 | 16.11° C | 100% | 999.1 hPa | 2.29 mm | - | - | - |
| 1777479890 | 16.11° C | 100% | 999.2 hPa | 2.29 mm | - | - | - |
| 1777479592 | 15.56° C | 100% | 999.2 hPa | 2.29 mm | - | - | - |
| 1777479274 | 16.11° C | 100% | 999.2 hPa | 2.29 mm | - | - | - |
| 1777478986 | 16.11° C | 100% | 999.2 hPa | 2.29 mm | - | - | - |
| 1777478688 | 16.11° C | 100% | 999.2 hPa | 2.29 mm | - | - | - |
| 1777478381 | 16.11° C | 100% | 999.2 hPa | 2.29 mm | - | - | - |
| 1777478056 | 16.11° C | 100% | 999.1 hPa | 2.29 mm | - | - | - |
| 1777477450 | 16.11° C | 100% | 999.2 hPa | 2.29 mm | - | - | - |
| 1777477157 | 15.56° C | 100% | 999.2 hPa | 2.29 mm | - | - | - |
| 1777476866 | 16.11° C | 100% | 999.2 hPa | 2.29 mm | - | - | - |
* Rain since midnight (hover to see other rain measurements)
** Current wind speed in m/s (hover to see current wind gust speed)